Content
SEND FEEDBACK

Daily
Averages
Monthly
Summary
France

BORDEAUX, FRANCE


Home > Europe > France
Elevation: 200 feet     Latitude: 44 50N     Longitude: 000 42W

WEATHER
 
SELECT A DAY
Number of Records: 321,291;   Date Range: 7/1/96 - 8/10/14
 
SHARE

PRINT THIS DATA

[ ← Previous Day ]
WEATHER ALMANAC - AUGUST 28, 2013
[ Next Day → ]
[ °C ]   °F
Weather ElementAverageHighLow
Temperature65.1 °F75.2 °F (3:30 pm)56 °F (6:00 am)
Dewpoint54.8 °F59 °F (12:00 am)44.6 °F (4:30 pm)
Humidity70.7 %94 % (1:00 am)29 % (3:00 pm)
Barometer30.10 in30.15 in (11:00 am)30.06 in (12:00 am)
Wind Speed4.5 mph15.7 mph (3:00 pm)
Weather ElementAverage
Visibility4.4 mi
Wind DirectionSSW (187.6 °)

Weather ElementTotal
Precipitation---
Cooling Degree Days0.6 (Base 65)
Growing Degree Days15.6 (Base 50)
Averaged from 67 records on August 28, 2013
WEATHER CONDITIONS BREAKOUT
WIND DIRECTION BREAKOUT
WEATHER BY HOUR - AUGUST 28, 2013
[ °C ]   °F
Local TimeTemperatureDewpointHumidityBarometerVisibilityWind DirectionWind SpeedGust SpeedPrecipitationEventsConditions
12:00 AM62.6 °F59.0 °F88 %30.06 in1.7 miWSW (250°)4.6 mphMist
12:30 AM62.6 °F59.0 °F88 %30.06 in1.7 miWSW (250°)4.6 mph
1:00 AM61.0 °F58.0 °F87 %30.08 inWest (260°)6.7 mphMist
1:00 AM60.8 °F59.0 °F94 %30.06 in1.5 miWest (260°)3.5 mph
1:30 AM60.8 °F57.2 °F88 %30.06 in2.2 miWest (270°)2.3 mph
2:00 AM61.0 °F58.0 °F85 %30.07 inWest (260°)2.3 mphMist
2:00 AM60.8 °F57.2 °F88 %30.06 in0.4 miWest (260°)2.3 mphFogPatches of Fog
2:30 AM60.8 °F57.2 °F88 %30.06 in0.1 miWSW (250°)2.3 mphFogPatches of Fog
3:00 AM59.0 °F57.2 °F94 %30.06 in1.1 miWSW (250°)1.2 mphMist
3:00 AM60.0 °F57.0 °F87 %30.07 inWSW (250°)2.2 mphMist
3:30 AM59.0 °F55.4 °F88 %30.06 in1.7 miWest (260°)1.2 mphFogPatches of Fog
4:00 AM58.0 °F56.0 °F90 %30.07 in0.0 miCalmFogPartial Fog
4:00 AM59.0 °F55.4 °F88 %30.06 in1.3 miCalmFogPatches of Fog
4:30 AM59.0 °F55.4 °F88 %30.06 in0.1 miCalmFogPatches of Fog
5:00 AM57.0 °F55.0 °F91 %30.08 in0.0 miCalmFogPartial Fog
5:00 AM57.2 °F55.4 °F94 %30.06 in3.1 miCalmFogPatches of Fog
5:30 AM57.2 °F55.4 °F94 %30.06 in4.3 miCalmFogPatches of Fog
6:00 AM56.0 °F54.0 °F91 %30.09 inCalmScattered Clouds
6:00 AM57.2 °F53.6 °F88 %30.06 in3.1 miCalmFogPatches of Fog
6:30 AM57.2 °F53.6 °F88 %30.06 in4.3 miCalmFogPatches of Fog
7:00 AM57.0 °F55.0 °F89 %30.09 inNorth (10°)2.3 mphFogPatches of Fog
7:00 AM57.2 °F55.4 °F94 %30.06 in3.1 miVariable2.3 mphMist
7:30 AM57.2 °F55.4 °F94 %30.09 in3.7 miCalm
8:00 AM59.0 °F57.0 °F92 %30.11 inNorth (10°)4.5 mphMist
8:00 AM59.0 °F57.2 °F94 %30.09 in3.7 miVariable2.3 mphMostly Cloudy
8:30 AM60.8 °F59.0 °F94 %30.09 in3.1 miNNE (30°)3.5 mphOvercast
9:00 AM62.0 °F59.0 °F87 %30.12 inNNE (30°)6.7 mphMist
9:00 AM62.6 °F59.0 °F88 %30.09 in3.7 miVariable3.5 mph
9:30 AM62.6 °F59.0 °F88 %30.12 in4.3 miNNE (20°)4.6 mph
10:00 AM63.0 °F58.0 °F78 %30.14 inCalmClear
10:00 AM62.6 °F57.2 °F82 %30.12 in5.6 miCalmMist
10:30 AM64.4 °F59.0 °F83 %30.12 in5.6 miNorth (10°)3.5 mph
11:00 AM64.4 °F57.2 °F77 %30.12 in6.2 miNNE (20°)5.8 mph
11:00 AM65.0 °F57.0 °F69 %30.15 inNNE (20°)11.2 mphPartly Cloudy
11:30 AM66.2 °F57.2 °F73 %30.12 in6.2 miVariable3.5 mph
12:00 PM68.0 °F57.2 °F68 %30.12 in6.2 miVariable2.3 mph
12:30 PM69.8 °F55.4 °F60 %30.12 in6.2 miVariable3.5 mph
1:00 PM70.0 °F56.0 °F52 %30.15 inNNE (30°)6.7 mphClear
1:00 PM69.8 °F57.2 °F64 %30.12 in6.2 miNNE (30°)3.5 mph
1:30 PM71.6 °F55.4 °F57 %30.12 in6.2 miNNW (340°)6.9 mphMostly Cloudy
2:00 PM72.0 °F53.0 °F40 %30.14 inNorth (350°)6.9 mphPartly Cloudy
2:00 PM71.6 °F51.8 °F50 %30.12 in6.2 miNorth (350°)6.9 mph
2:30 PM73.4 °F48.2 °F41 %30.12 in6.2 miNorth (360°)9.2 mph
3:00 PM74.0 °F48.0 °F29 %30.13 inNorth (350°)15.7 mphScattered Clouds
3:00 PM73.4 °F48.2 °F41 %30.12 in6.2 miNorth (350°)8.1 mph
3:30 PM75.2 °F46.4 °F36 %30.12 in6.2 miNorth (350°)8.1 mph
4:00 PM75.2 °F46.4 °F36 %30.09 in6.2 miNW (320°)6.9 mph
4:30 PM75.2 °F44.6 °F34 %30.09 in6.2 miNNE (20°)10.4 mph
5:00 PM75.2 °F48.2 °F38 %30.09 in6.2 miNNW (340°)9.2 mph
5:30 PM73.4 °F50.0 °F44 %30.09 in6.2 miNNW (340°)9.2 mph
6:00 PM73.4 °F50.0 °F44 %30.09 in6.2 miNNW (330°)8.1 mph
6:00 PM72.0 °F51.0 °F36 %30.11 inNNW (330°)8.1 mphScattered Clouds
6:30 PM71.6 °F51.8 °F50 %30.09 in6.2 miNNW (340°)8.1 mph
7:00 PM71.0 °F52.0 °F40 %30.12 inNW (320°)11.2 mphScattered Clouds
7:00 PM71.6 °F51.8 °F50 %30.09 in6.2 miNW (320°)5.8 mph
7:30 PM71.6 °F51.8 °F50 %30.09 in6.2 miWNW (290°)3.5 mph
8:00 PM71.0 °F53.0 °F43 %30.11 inWNW (300°)3.5 mphPartly Cloudy
8:00 PM71.6 °F53.6 °F53 %30.09 in6.2 miWNW (300°)3.5 mph
8:30 PM69.8 °F55.4 °F60 %30.09 in6.2 miNW (320°)5.8 mph
9:00 PM68.0 °F55.4 °F64 %30.12 in6.2 miNW (320°)6.9 mph
9:00 PM67.0 °F56.0 °F59 %30.13 inNW (320°)13.4 mphClear
9:30 PM66.2 °F55.4 °F68 %30.12 in6.2 miNW (320°)3.5 mph
10:00 PM65.0 °F56.0 °F64 %30.14 inNW (320°)6.7 mphClear
10:00 PM64.4 °F55.4 °F73 %30.12 in6.2 miNW (320°)3.5 mph
10:30 PM64.4 °F55.4 °F73 %30.12 in6.2 miNW (310°)3.5 mph
11:00 PM64.4 °F55.4 °F73 %30.12 in6.2 miWNW (300°)2.3 mph
11:30 PM62.6 °F55.4 °F77 %30.12 in6.2 miWest (260°)3.5 mph
Hourly data recorded from LFBD, located miles away from Bordeaux, France







STORIES FROM OUR PARTNERS